Wind_Speed
15 16 17 17 17 18 17 17 17 17 16 16 16 17 17 17 18 18 18 19 19 19 19 20 20 20 20 20 19 20 20 19 19 20 20 20 21 20
18 18 18 18 18 19 19 19 19 19 18 18 19 19 19 19 20 20 21 21 21 21 21 22 22 22 22 22 22 22 22 21 21 21 21 22 22 22
18 18 18 19 19 19 20 21 21 21 21 20 20 20 20 21 21 22 23 23 23 22 23 23 23 23 23 23 24 24 24 23 23 23 23 23 23 23
20 20 20 20 21 21 20 20 20 21 21 21 21 22 22 23 23 24 25 25 24 24 24 24 24 24 24 25 25 25 25 25 25 24 25 25 25 25
22 22 22 22 22 21 21 21 21 21 21 22 22 22 23 24 25 25 26 26 26 26 26 26 26 26 26 26 27 27 27 27 26 26 26 26 26 25
24 24 24 24 24 23 24 24 24 24 24 24 23 24 25 25 26 26 27 27 27 28 28 28 28 27 27 27 27 27 28 28 28 28 28 27 27 27
25 25 25 25 25 25 26 26 27 27 26 26 26 26 27 27 28 28 27 27 28 28 29 28 28 28 28 28 29 29 29 30 30 29 29 29 28 28
27 26 26 26 27 27 27 28 28 28 28 29 29 28 28 28 29 29 29 29 29 30 30 30 30 30 30 31 31 31 31 31 31 31 31 31 30 30
29 28 27 28 28 28 29 30 30 30 30 30 30 30 30 30 30 30 31 30 30 30 31 31 31 31 32 32 32 32 32 32 32 32 32 32 32 31
30 30 30 30 30 31 31 31 32 32 31 31 31 32 32 32 32 33 32 32 32 32 32 32 33 33 32 33 32 33 33 33 33 33 32 32 33 33
32 32 32 32 32 33 33 32 32 33 33 32 32 32 33 34 34 34 34 33 33 33 34 34 33 33 33 33 33 33 33 33 34 34 33 33 33 33
35 35 35 34 34 34 34 34 34 34 33 34 34 34 34 35 35 35 34 34 34 34 34 34 34 34 34 34 34 33 34 34 34 33 34 33 33 32
36 36 35 35 35 35 35 35 35 35 35 35 35 35 35 35 35 35 35 34 34 34 34 34 34 35 35 34 33 33 33 34 33 33 33 33 33 32
38 37 36 36 36 36 37 37 37 36 36 36 35 35 35 35 35 35 35 35 35 34 34 35 35 35 35 35 34 33 33 33 33 33 33 33 33 32
37 37 37 37 38 38 38 38 37 36 36 35 35 35 35 35 35 35 36 35 35 35 35 35 35 35 34 34 34 34 33 33 33 33 33 33 33 33
38 38 38 38 38 38 37 36 36 35 35 35 35 35 35 35 35 35 36 36 35 35 35 35 35 34 34 34 34 34 33 33 33 33 33 33 33 32
37 38 37 37 37 37 36 36 36 36 36 35 34 34 35 35 35 35 35 35 35 34 34 34 34 34 34 33 33 33 33 33 33 33 33 32 32 31
36 36 36 36 35 35 35 35 36 36 35 35 34 34 34 34 34 34 34 34 33 33 33 33 34 34 34 33 33 33 32 32 32 31 31 31 31 30
35 35 35 35 35 34 35 35 36 36 35 34 33 33 33 34 34 34 34 33 33 32 32 33 33 33 33 32 32 33 33 32 31 30 30 30 29 29
35 35 36 36 35 35 35 35 35 34 35 34 33 33 33 34 34 34 34 33 33 33 33 33 32 32 32 31 31 31 32 31 30 29 29 29 29 28
34 34 35 35 35 35 35 34 34 33 33 34 34 34 34 34 34 33 33 33 33 33 33 33 33 32 31 31 30 30 30 30 30 29 29 29 28 27
35 34 34 34 35 34 33 33 33 33 33 34 34 34 34 34 34 33 32 32 32 33 33 32 32 32 31 31 31 30 30 29 29 29 29 29 28 27
34 35 34 33 33 33 32 32 33 33 33 34 34 34 33 33 33 32 32 31 31 32 32 32 32 31 31 30 30 30 29 29 29 29 29 28 28 27
Wind_Direction
286 285 283 281 280 280 280 279 279 280 282 284 284 285 286 287 288 289 291 292 289 289 289 290 290 289 288 288 285 287 287 288 289 288 287 286 285 283
288 288 288 287 286 283 280 278 277 279 281 282 282 284 286 287 287 287 289 291 291 288 287 288 290 289 287 286 285 286 285 286 287 288 287 287 286 285
286 287 287 287 288 287 283 281 281 281 281 282 281 281 284 286 286 286 288 289 290 290 289 288 290 288 285 285 284 283 283 285 286 285 286 287 287 285
286 287 288 288 288 288 286 286 285 285 283 281 278 279 282 285 287 290 289 287 288 288 287 288 290 288 286 284 284 284 284 284 284 283 285 285 286 285
283 285 287 287 288 285 284 286 287 287 285 283 280 281 283 284 287 289 290 288 288 288 287 288 289 288 287 285 284 283 283 282 282 283 283 284 284 283
281 283 285 285 285 283 284 284 284 284 284 284 284 283 285 286 286 286 287 287 288 288 288 287 288 288 286 285 285 284 283 282 282 281 281 281 282 282
279 281 284 284 282 281 282 283 282 283 283 284 283 283 284 285 285 285 286 286 287 288 288 287 287 287 286 285 284 284 284 283 282 280 280 280 281 282
276 279 282 283 280 280 282 282 282 282 282 283 283 282 283 284 285 285 285 284 286 286 286 285 286 286 286 285 284 283 284 283 282 281 281 280 280 280
275 278 281 283 282 280 281 281 281 282 281 283 283 282 282 283 284 285 285 283 283 283 284 285 286 286 286 285 283 282 283 282 280 280 280 280 280 279
276 277 279 280 282 282 282 281 280 281 281 283 283 283 283 283 284 284 284 283 282 283 285 285 286 286 287 286 285 283 282 282 281 280 279 279 279 278
275 276 277 278 280 282 283 282 281 281 282 284 285 284 283 283 284 285 285 285 284 284 284 284 285 285 286 286 286 285 284 283 281 280 279 278 279 278
274 275 275 277 279 280 282 282 282 282 282 283 283 283 283 284 285 285 285 285 285 284 284 284 284 285 285 285 286 285 284 283 282 281 281 280 280 279
273 273 274 276 278 279 280 281 282 282 282 282 283 283 283 284 285 286 286 285 285 284 284 284 284 285 286 285 285 285 284 283 282 281 281 280 280 279
272 273 274 275 277 277 279 279 281 280 281 282 282 282 283 284 285 285 285 285 285 284 283 284 285 285 286 286 286 285 285 284 283 281 280 280 278 278
273 273 274 275 276 277 278 279 280 281 281 281 283 283 283 284 284 284 285 286 286 285 284 284 285 285 285 285 284 284 284 283 283 282 281 280 279 279
271 272 274 275 277 278 278 279 280 281 281 282 282 283 282 283 284 284 285 286 286 287 285 284 285 285 285 285 285 285 284 283 282 282 281 282 281 281
272 273 273 275 278 278 277 279 280 281 283 283 283 283 283 284 283 284 285 285 286 286 285 284 284 285 285 286 286 286 286 284 282 282 282 281 282 281
274 274 273 274 275 275 276 278 279 282 282 283 283 284 284 284 285 285 285 285 286 286 284 283 283 284 285 285 285 286 286 286 285 284 282 281 281 280
273 273 272 271 273 275 276 277 279 280 280 281 282 283 284 284 284 285 286 286 285 286 285 284 284 285 284 284 284 286 287 287 286 284 283 282 281 279
273 270 270 271 273 275 276 277 277 278 279 281 281 282 283 284 284 284 285 286 286 286 285 285 285 285 286 285 285 286 287 286 284 284 284 284 282 279
272 272 272 273 275 277 277 277 277 278 279 280 282 282 282 283 284 283 284 285 285 285 285 285 285 285 285 286 287 287 287 285 284 284 284 283 282 280
272 272 273 274 276 276 276 276 276 278 279 281 282 283 282 283 284 283 283 284 285 285 285 284 285 285 285 286 287 288 287 285 284 284 284 283 282 281
273 273 274 275 275 275 275 275 277 278 280 281 281 281 282 283 283 283 283 283 285 285 284 283 283 283 284 286 286 287 286 283 282 283 284 284 283 281
Height
5883 5883 5882 5881 5880 5879 5879 5878 5878 5877 5877 5876 5875 5874 5873 5872 5871 5871 5870 5869 5868 5867 5866 5865 5864 5863 5862 5861 5860 5859 5858 5856 5855 5854 5853 5851 5850 5849
5879 5878 5877 5876 5876 5875 5874 5874 5873 5873 5872 5872 5870 5869 5868 5868 5867 5866 5865 5864 5863 5862 5861 5860 5859 5858 5857 5856 5855 5853 5852 5851 5850 5849 5847 5846 5845 5843
5874 5874 5873 5872 5871 5870 5869 5869 5868 5868 5867 5867 5865 5864 5863 5863 5862 5861 5860 5859 5857 5856 5855 5854 5853 5852 5851 5850 5849 5847 5846 5845 5844 5842 5841 5840 5839 5838
5870 5869 5868 5867 5866 5865 5864 5863 5863 5862 5862 5861 5860 5859 5858 5857 5856 5855 5853 5852 5851 5850 5849 5848 5847 5845 5844 5843 5842 5840 5839 5838 5837 5835 5834 5833 5832 5831
5865 5864 5863 5862 5861 5859 5859 5858 5857 5856 5855 5855 5854 5853 5852 5851 5850 5849 5847 5846 5844 5843 5842 5841 5840 5838 5837 5835 5834 5833 5832 5831 5829 5828 5827 5826 5824 5823
5858 5858 5857 5856 5855 5854 5853 5852 5851 5850 5849 5848 5847 5846 5845 5844 5842 5841 5840 5839 5838 5836 5835 5833 5832 5831 5829 5828 5826 5825 5824 5823 5821 5820 5819 5818 5817 5815
5852 5851 5850 5849 5848 5847 5846 5845 5844 5843 5842 5841 5840 5839 5838 5836 5835 5834 5832 5831 5830 5828 5827 5826 5824 5823 5821 5820 5818 5817 5816 5814 5813 5812 5810 5809 5808 5807
5844 5843 5843 5842 5840 5840 5839 5838 5837 5836 5835 5834 5832 5831 5829 5828 5827 5825 5824 5823 5822 5821 5819 5818 5816 5815 5813 5811 5810 5808 5807 5805 5804 5803 5802 5801 5800 5799
5836 5836 5835 5834 5833 5832 5831 5830 5828 5827 5827 5826 5824 5823 5821 5820 5818 5817 5815 5814 5813 5812 5810 5809 5807 5806 5804 5802 5800 5799 5797 5796 5794 5793 5792 5791 5790 5789
5828 5828 5827 5826 5825 5824 5823 5821 5820 5819 5818 5817 5815 5814 5812 5811 5809 5808 5806 5805 5804 5802 5801 5800 5798 5796 5794 5792 5790 5789 5787 5786 5784 5783 5782 5781 5780 5779
5820 5819 5818 5817 5816 5815 5814 5812 5811 5810 5808 5807 5806 5804 5803 5801 5800 5798 5797 5796 5794 5793 5791 5790 5788 5787 5785 5783 5781 5779 5777 5776 5774 5773 5771 5770 5769 5768
5810 5809 5809 5808 5807 5806 5805 5803 5802 5800 5798 5797 5796 5794 5793 5791 5789 5788 5787 5785 5784 5783 5781 5780 5778 5776 5775 5774 5771 5769 5767 5765 5763 5762 5761 5759 5758 5758
5800 5799 5799 5798 5797 5796 5794 5793 5792 5790 5789 5787 5786 5784 5783 5781 5779 5778 5776 5775 5773 5772 5771 5769 5767 5765 5764 5763 5761 5759 5757 5755 5753 5752 5750 5749 5748 5747
5789 5789 5788 5787 5786 5785 5784 5783 5782 5780 5779 5778 5776 5775 5773 5771 5769 5767 5766 5764 5762 5761 5759 5758 5756 5755 5753 5752 5750 5749 5747 5744 5743 5742 5740 5739 5738 5737
5778 5778 5777 5776 5776 5775 5774 5773 5771 5770 5768 5767 5766 5764 5763 5761 5759 5757 5755 5753 5751 5749 5748 5746 5745 5743 5742 5741 5739 5738 5737 5735 5733 5731 5730 5729 5728 5727
5767 5767 5766 5765 5765 5764 5763 5762 5761 5759 5758 5757 5755 5754 5752 5750 5748 5746 5744 5742 5740 5738 5736 5735 5734 5733 5731 5730 5729 5727 5726 5724 5723 5721 5720 5719 5718 5717
5755 5755 5755 5754 5754 5753 5752 5751 5750 5748 5747 5746 5745 5743 5741 5739 5737 5736 5734 5732 5730 5728 5726 5725 5723 5722 5721 5720 5718 5717 5715 5714 5712 5711 5709 5708 5708 5707
5744 5744 5744 5743 5743 5742 5741 5740 5739 5737 5736 5735 5734 5732 5731 5729 5727 5726 5724 5722 5720 5718 5717 5715 5714 5712 5711 5710 5708 5706 5705 5703 5702 5700 5699 5698 5698 5697
5733 5733 5733 5732 5732 5731 5730 5729 5728 5726 5725 5724 5723 5722 5720 5719 5717 5715 5713 5711 5710 5709 5707 5705 5704 5702 5701 5701 5699 5697 5695 5693 5692 5691 5690 5689 5688 5688
5722 5722 5722 5721 5720 5720 5719 5718 5717 5716 5715 5714 5712 5711 5710 5708 5707 5705 5704 5702 5700 5699 5697 5696 5694 5693 5691 5691 5689 5688 5685 5683 5682 5682 5681 5680 5679 5678
5712 5711 5711 5710 5710 5709 5709 5707 5706 5705 5704 5703 5702 5701 5699 5698 5696 5695 5694 5692 5690 5689 5688 5686 5685 5683 5681 5680 5679 5678 5676 5674 5673 5672 5672 5671 5670 5670
5701 5700 5700 5699 5699 5698 5697 5696 5696 5695 5694 5693 5691 5690 5688 5687 5686 5685 5683 5682 5680 5679 5678 5676 5674 5673 5672 5671 5669 5668 5667 5666 5664 5663 5662 5662 5661 5661
5689 5689 5689 5688 5688 5687 5687 5686 5685 5684 5683 5682 5680 5679 5678 5676 5675 5674 5672 5671 5670 5669 5667 5666 5664 5663 5662 5661 5660 5658 5657 5656 5655 5654 5654 5653 5652 5652